Showing default

MDS 1, 27367

Orbit data source: Space-Track

MDS 1, 27367 is a payload satellite owned by NASDA (JP) that was launched on Mon, 04 Feb 2002 UTC via an H-IIA 2024 launch vehicle from the Tanegashima Space Center (TNSTA). Payload-class satellites include a variety of spacecraft equipped with specific instruments for various scientific and technological missions. These include communications satellites like Starlink; space stations such as the ISS; scientific satellites like the Hubble; Earth observation satellites from companies like Planet Labs, Umbra, and HawkEye 360; GPS; miniature CubeSats for education and research; and military/defense satellites.

Loading next visibility...
Identifier
27367, 2002-003A
Orbit
Active
Country
Flag of JPJP / JPN
Related business
Manufacturer
NEC Toshiba/Kamoi
Mission
Non-operational Civil Technology
Bus & Motor
MDS, AOCS
Mass
449 kg wet, ~440 kg dry
Launch date (UTC)
2002-02-04 (24 years ago)
Launch vehicle
H-IIA 2024
Launch site
Tanegashima Space Center (TNSTA)
Object type
Payload
Rocket body
Debris
Shape & HBR
Box + 2 Pan, 1.6 m
Radar Cross Section
5.220 m², Large (>1 m²)

Expand to show TLE details & history
Last TLE update: 1 day ago

TLE from 1 day ago
0 MDS 1
1 27367U 02003A   25348.19866901  .00030756  00000-0  19739-2 0  9994
2 27367  28.4911 206.0197 4175296 226.7655  89.8822  7.11762192379624
Epoch: 2025-12-14T04:46Z
TLE epoch observation values (Epoch: 2025-12-14T04:46:05.002Z)
Latitude
-0°
Longitude
51.38383°
Altitude
6,825.282 km
Speed
5.047 km/s
True Right ascension
13h 44m 04s
True Declination
0° 00' 00"
Sunlit
Object was in daylight at epoch
Visualization orbit readout
Latitude
Unknown
Longitude
Unknown
Altitude
Unknown
Speed
Unknown
Apparent Right ascension
Unknown
Apparent Declination
Unknown
Sunlit
N/A
Visualization observer readout
Local Sidereal Time
13:22:42
Azimuth
Unknown
Elevation
Unknown
Doppler factor
Unknown
Orbital elements
Apogee altitude
9,809.116 km
Perigee altitude
273.291 km
Semi-major axis
11,419.341 km
Eccentricity
0.41753
Inclination
28.4911°
RAAN
206.0197°
Arg. of periapsis
226.7655°
True anomaly
133.27807°
Mean anomaly
89.8822°
Eccentric anomaly
112.05441°
Mean motion
1.77861 °/min
Orbital period
202.4 mins
BSTAR
0.0019739
Loading maneuver chart data...
Computing Atmospheric mass density...
Loading historical data...
Loading historical data...
Loading historical data...
Loading historical data...
Loading historical data...
Loading historical data...
Loading historical data...
Other satellites on launch #3 in the year 2002 (2002-02-04 UTC)

Documentation

Showing up to 5 results
|